Air Quality Table

TIMESTAMP NO2 SO2 O3 PM10 PM2.5 TEMP HUM AIRPRES WS WD NO
2022-11-30 12:00 0.32 µg/m3 0.16 µg/m3 92.28 µg/m3 2.96 µg/m3 1 µg/m3 °C % mbar m/s Deg 0.12 µg/m3
2022-11-30 11:00 3.87 µg/m3 0.17 µg/m3 88.63 µg/m3 2.32 µg/m3 1 µg/m3 °C % mbar m/s Deg 0.39 µg/m3
2022-11-30 10:00 0.71 µg/m3 0.13 µg/m3 88.76 µg/m3 -1.45 µg/m3 1 µg/m3 °C % mbar m/s Deg 0.08 µg/m3
2022-11-30 09:00 0.72 µg/m3 0.18 µg/m3 87.16 µg/m3 -2.59 µg/m3 1 µg/m3 °C % mbar m/s Deg 0.09 µg/m3
2022-11-30 08:00 0.95 µg/m3 0.18 µg/m3 86.97 µg/m3 3.82 µg/m3 1 µg/m3 °C % mbar m/s Deg 0.07 µg/m3
2022-11-30 07:00 1.96 µg/m3 0.16 µg/m3 84.55 µg/m3 3.39 µg/m3 1 µg/m3 °C % mbar m/s Deg 0.07 µg/m3
2022-11-30 06:00 1.4 µg/m3 0.26 µg/m3 86.32 µg/m3 -0.52 µg/m3 1 µg/m3 °C % mbar m/s Deg 0.07 µg/m3
2022-11-30 05:00 1.29 µg/m3 0.16 µg/m3 88.59 µg/m3 3.2 µg/m3 1 µg/m3 °C % mbar m/s Deg 0.06 µg/m3
2022-11-30 04:00 1.07 µg/m3 0.41 µg/m3 83.76 µg/m3 4.58 µg/m3 1 µg/m3 °C % mbar m/s Deg 0.06 µg/m3
2022-11-30 03:00 0.94 µg/m3 0.29 µg/m3 83.66 µg/m3 6.53 µg/m3 1 µg/m3 °C % mbar m/s Deg 0.06 µg/m3
2022-11-30 02:00 0.64 µg/m3 0.3 µg/m3 83.04 µg/m3 2.65 µg/m3 1 µg/m3 °C % mbar m/s Deg 0.06 µg/m3
2022-11-30 01:00 0.57 µg/m3 0.3 µg/m3 83.45 µg/m3 9.46 µg/m3 1 µg/m3 °C % mbar m/s Deg 0.05 µg/m3
2022-11-30 00:00 0.95 µg/m3 0.25 µg/m3 86.53 µg/m3 7.98 µg/m3 1 µg/m3 °C % mbar m/s Deg 0.05 µg/m3
2022-11-29 23:00 1.02 µg/m3 0.15 µg/m3 89.79 µg/m3 4.65 µg/m3 1 µg/m3 °C % mbar m/s Deg 0.05 µg/m3
2022-11-29 22:00 1.07 µg/m3 0.13 µg/m3 91.09 µg/m3 7.22 µg/m3 1 µg/m3 °C % mbar m/s Deg 0.05 µg/m3
2022-11-29 21:00 1.7 µg/m3 0.23 µg/m3 85.93 µg/m3 -1.91 µg/m3 1 µg/m3 °C % mbar m/s Deg 0.06 µg/m3
2022-11-29 20:00 1.91 µg/m3 0.18 µg/m3 81.59 µg/m3 5.94 µg/m3 1 µg/m3 °C % mbar m/s Deg 0.06 µg/m3
2022-11-29 19:00 2.3 µg/m3 0.19 µg/m3 83.12 µg/m3 6.58 µg/m3 1 µg/m3 °C % mbar m/s Deg 0.07 µg/m3
2022-11-29 18:00 1.55 µg/m3 0.21 µg/m3 87.33 µg/m3 12 µg/m3 1 µg/m3 °C % mbar m/s Deg 0.06 µg/m3
2022-11-29 17:00 3.68 µg/m3 0.21 µg/m3 81.44 µg/m3 0.76 µg/m3 1 µg/m3 °C % mbar m/s Deg 0.1 µg/m3
2022-11-29 16:00 5.58 µg/m3 0.25 µg/m3 81.43 µg/m3 10.74 µg/m3 1 µg/m3 °C % mbar m/s Deg 0.26 µg/m3
2022-11-29 15:00 2.15 µg/m3 0.21 µg/m3 84.41 µg/m3 10.82 µg/m3 1 µg/m3 °C % mbar m/s Deg 0.15 µg/m3
2022-11-29 14:00 2.3 µg/m3 0.2 µg/m3 84.55 µg/m3 4.98 µg/m3 1 µg/m3 °C % mbar m/s Deg 0.23 µg/m3
2022-11-29 13:00 1.4 µg/m3 0.25 µg/m3 85.84 µg/m3 2.65 µg/m3 1 µg/m3 °C % mbar m/s Deg 0.14 µg/m3
2022-11-29 12:00 1.12 µg/m3 0.29 µg/m3 85.51 µg/m3 5.8 µg/m3 1 µg/m3 °C % mbar m/s Deg 0.24 µg/m3
2022-11-29 11:00 1.9 µg/m3 0.3 µg/m3 84 µg/m3 5.89 µg/m3 1 µg/m3 °C % mbar m/s Deg 0.44 µg/m3
2022-11-29 10:00 4.91 µg/m3 0.28 µg/m3 81.3 µg/m3 5.68 µg/m3 1 µg/m3 °C % mbar m/s Deg 0.99 µg/m3
2022-11-29 09:00 9.92 µg/m3 0.22 µg/m3 77.3 µg/m3 1.47 µg/m3 1 µg/m3 °C % mbar m/s Deg 1.24 µg/m3
2022-11-29 08:00 12.64 µg/m3 0.27 µg/m3 74.16 µg/m3 -0.86 µg/m3 -49.8 µg/m3 °C % mbar m/s Deg 0.45 µg/m3
2022-11-29 07:00 4.11 µg/m3 0.26 µg/m3 79.11 µg/m3 0.61 µg/m3 4.04 µg/m3 °C % mbar m/s Deg 0.07 µg/m3
2022-11-29 06:00 2.2 µg/m3 0.3 µg/m3 81.75 µg/m3 2.97 µg/m3 7.18 µg/m3 °C % mbar m/s Deg 0.06 µg/m3
2022-11-29 05:00 4.12 µg/m3 0.41 µg/m3 78 µg/m3 4.85 µg/m3 6.62 µg/m3 °C % mbar m/s Deg 0.05 µg/m3
2022-11-29 04:00 5.8 µg/m3 0.47 µg/m3 73.86 µg/m3 6.77 µg/m3 4.18 µg/m3 °C % mbar m/s Deg 0.07 µg/m3
2022-11-29 03:00 7.67 µg/m3 0.71 µg/m3 74.66 µg/m3 6.26 µg/m3 4.27 µg/m3 °C % mbar m/s Deg 0.08 µg/m3
2022-11-29 02:00 6.17 µg/m3 0.65 µg/m3 74.73 µg/m3 2.05 µg/m3 4.74 µg/m3 °C % mbar m/s Deg 0.07 µg/m3
2022-11-29 01:00 3.19 µg/m3 0.68 µg/m3 78.24 µg/m3 8.65 µg/m3 5.4 µg/m3 °C % mbar m/s Deg 0.07 µg/m3
2022-11-29 00:00 4.64 µg/m3 0.67 µg/m3 77.31 µg/m3 7.93 µg/m3 5.4 µg/m3 °C % mbar m/s Deg 0.07 µg/m3
2022-11-28 23:00 4.4 µg/m3 0.57 µg/m3 76.42 µg/m3 12.03 µg/m3 4.88 µg/m3 °C % mbar m/s Deg 0.07 µg/m3
2022-11-28 22:00 9.75 µg/m3 0.55 µg/m3 69.56 µg/m3 7.5 µg/m3 4.74 µg/m3 °C % mbar m/s Deg 0.09 µg/m3
2022-11-28 21:00 11.4 µg/m3 0.67 µg/m3 67.75 µg/m3 14.7 µg/m3 5.4 µg/m3 °C % mbar m/s Deg 0.09 µg/m3
2022-11-28 20:00 15.83 µg/m3 0.71 µg/m3 65.16 µg/m3 13.82 µg/m3 4.74 µg/m3 °C % mbar m/s Deg 0.11 µg/m3
2022-11-28 19:00 13.22 µg/m3 0.7 µg/m3 67.83 µg/m3 7.71 µg/m3 5.16 µg/m3 °C % mbar m/s Deg 0.08 µg/m3
2022-11-28 18:00 6.71 µg/m3 0.59 µg/m3 74.07 µg/m3 8.12 µg/m3 4.46 µg/m3 °C % mbar m/s Deg 0.09 µg/m3
2022-11-28 17:00 2.58 µg/m3 0.54 µg/m3 78.55 µg/m3 9.46 µg/m3 3.71 µg/m3 °C % mbar m/s Deg 0.1 µg/m3
2022-11-28 16:00 1.54 µg/m3 0.74 µg/m3 85.55 µg/m3 8.16 µg/m3 3.1 µg/m3 °C % mbar m/s Deg 0.18 µg/m3
2022-11-28 15:00 1.59 µg/m3 0.69 µg/m3 87.76 µg/m3 2.19 µg/m3 1.32 µg/m3 °C % mbar m/s Deg 0.24 µg/m3
2022-11-28 14:00 1.5 µg/m3 0.65 µg/m3 87.84 µg/m3 0.37 µg/m3 2.63 µg/m3 °C % mbar m/s Deg 0.26 µg/m3
2022-11-28 13:00 0.66 µg/m3 1.2 µg/m3 86.19 µg/m3 -0.49 µg/m3 2.63 µg/m3 °C % mbar m/s Deg 0.19 µg/m3
2022-11-28 12:00 -1.18 µg/m3 3.4 µg/m3 16 µg/m3 -0.78 µg/m3 2.63 µg/m3 °C % mbar m/s Deg -1.33 µg/m3
2022-11-27 04:00 0.59 µg/m3 0 µg/m3 79.68 µg/m3 2.54 µg/m3 1.93 µg/m3 °C % mbar m/s Deg 0.06 µg/m3
2022-11-27 03:00 1.44 µg/m3 0.39 µg/m3 79.72 µg/m3 5.46 µg/m3 2.26 µg/m3 °C % mbar m/s Deg 0.07 µg/m3
2022-11-27 02:00 1.3 µg/m3 0.33 µg/m3 80.56 µg/m3 5.24 µg/m3 2.87 µg/m3 °C % mbar m/s Deg 0.06 µg/m3
2022-11-27 01:00 0.75 µg/m3 0.24 µg/m3 83.42 µg/m3 4.22 µg/m3 2.02 µg/m3 °C % mbar m/s Deg 0.06 µg/m3
2022-11-27 00:00 1.29 µg/m3 0.34 µg/m3 80.43 µg/m3 1.43 µg/m3 2.49 µg/m3 °C % mbar m/s Deg 0.05 µg/m3
2022-11-26 23:00 1.49 µg/m3 0.23 µg/m3 81.68 µg/m3 2.53 µg/m3 1.08 µg/m3 °C % mbar m/s Deg 0.06 µg/m3
2022-11-26 22:00 3.18 µg/m3 0.23 µg/m3 80.16 µg/m3 2.56 µg/m3 2.26 µg/m3 °C % mbar m/s Deg 0.06 µg/m3
2022-11-26 21:00 1.21 µg/m3 0.13 µg/m3 83.82 µg/m3 6.23 µg/m3 3.01 µg/m3 °C % mbar m/s Deg 0.07 µg/m3
2022-11-26 20:00 0.6 µg/m3 0.2 µg/m3 87.14 µg/m3 7.47 µg/m3 2.26 µg/m3 °C % mbar m/s Deg 0.06 µg/m3
2022-11-26 19:00 0.97 µg/m3 0.22 µg/m3 87.59 µg/m3 7.69 µg/m3 3.52 µg/m3 °C % mbar m/s Deg 0.05 µg/m3
2022-11-26 18:00 1.66 µg/m3 0.2 µg/m3 85.46 µg/m3 7.77 µg/m3 4.74 µg/m3 °C % mbar m/s Deg 0.05 µg/m3
2022-11-26 17:00 0.95 µg/m3 0.2 µg/m3 86.71 µg/m3 6.24 µg/m3 2.07 µg/m3 °C % mbar m/s Deg 0.07 µg/m3
2022-11-26 16:00 0.99 µg/m3 0.28 µg/m3 88.16 µg/m3 1.09 µg/m3 -0.04 µg/m3 °C % mbar m/s Deg 0.09 µg/m3
2022-11-26 15:00 2.02 µg/m3 0.52 µg/m3 87.24 µg/m3 -0.41 µg/m3 -2.11 µg/m3 °C % mbar m/s Deg 0.16 µg/m3
2022-11-26 14:00 1.21 µg/m3 0.52 µg/m3 84.17 µg/m3 1.66 µg/m3 0.57 µg/m3 °C % mbar m/s Deg 0.12 µg/m3
2022-11-26 13:00 0.68 µg/m3 -0.49 µg/m3 83.31 µg/m3 1.49 µg/m3 0.43 µg/m3 °C % mbar m/s Deg 0.1 µg/m3
2022-11-26 12:00 2.49 µg/m3 -0.52 µg/m3 75.55 µg/m3 -2.63 µg/m3 1.5 µg/m3 °C % mbar m/s Deg 0.22 µg/m3
2022-11-26 11:00 4 µg/m3 -0.49 µg/m3 70.6 µg/m3 6.63 µg/m3 1.41 µg/m3 °C % mbar m/s Deg 0.39 µg/m3
2022-11-26 10:00 3.24 µg/m3 -0.45 µg/m3 72.04 µg/m3 -13.03 µg/m3 10.88 µg/m3 °C % mbar m/s Deg 0.09 µg/m3
2022-11-26 09:00 2.11 µg/m3 -0.3 µg/m3 76.99 µg/m3 0.79 µg/m3 3.29 µg/m3 °C % mbar m/s Deg 0.12 µg/m3
2022-11-26 08:00 3.66 µg/m3 -0.1 µg/m3 83.58 µg/m3 11.41 µg/m3 6.15 µg/m3 °C % mbar m/s Deg 0.08 µg/m3
2022-11-26 07:00 4.21 µg/m3 -0.31 µg/m3 85.12 µg/m3 12.08 µg/m3 5.35 µg/m3 °C % mbar m/s Deg 0.06 µg/m3
2022-11-26 06:00 4.62 µg/m3 -0.47 µg/m3 84.7 µg/m3 11.97 µg/m3 5.59 µg/m3 °C % mbar m/s Deg 0.04 µg/m3
2022-11-26 05:00 5.09 µg/m3 -0.51 µg/m3 85.92 µg/m3 11.46 µg/m3 4.79 µg/m3 °C % mbar m/s Deg 0.03 µg/m3
2022-11-26 04:00 5.51 µg/m3 -0.52 µg/m3 83.36 µg/m3 11.33 µg/m3 3.43 µg/m3 °C % mbar m/s Deg 0.05 µg/m3
2022-11-26 03:00 5.78 µg/m3 -0.64 µg/m3 83.03 µg/m3 10.96 µg/m3 1.27 µg/m3 °C % mbar m/s Deg 0.03 µg/m3
2022-11-26 02:00 6.31 µg/m3 -0.61 µg/m3 81.37 µg/m3 11.22 µg/m3 -0.75 µg/m3 °C % mbar m/s Deg 0.06 µg/m3
2022-11-26 01:00 6.64 µg/m3 -0.6 µg/m3 84.52 µg/m3 12.59 µg/m3 -2.25 µg/m3 °C % mbar m/s Deg 0.05 µg/m3
2022-11-26 00:00 9.61 µg/m3 -0.62 µg/m3 81.76 µg/m3 12.81 µg/m3 -2.25 µg/m3 °C % mbar m/s Deg 0.08 µg/m3
2022-11-25 23:00 10.79 µg/m3 -0.61 µg/m3 80.75 µg/m3 12.51 µg/m3 -1.69 µg/m3 °C % mbar m/s Deg 0.06 µg/m3
2022-11-25 22:00 8.74 µg/m3 -0.62 µg/m3 83.76 µg/m3 14.25 µg/m3 0.05 µg/m3 °C % mbar m/s Deg 0.04 µg/m3
2022-11-25 21:00 7.6 µg/m3 -0.58 µg/m3 85.63 µg/m3 12.89 µg/m3 -2.3 µg/m3 °C % mbar m/s Deg 0.06 µg/m3
2022-11-25 20:00 5.89 µg/m3 -0.61 µg/m3 87.76 µg/m3 10.18 µg/m3 -4.5 µg/m3 °C % mbar m/s Deg 0.04 µg/m3
2022-11-25 19:00 3.26 µg/m3 -0.68 µg/m3 87.6 µg/m3 1.79 µg/m3 2.63 µg/m3 °C % mbar m/s Deg 0.05 µg/m3
2022-11-25 18:00 1.94 µg/m3 -0.67 µg/m3 90.01 µg/m3 -0.78 µg/m3 2.63 µg/m3 °C % mbar m/s Deg 0.04 µg/m3
2022-11-25 17:00 -0.4 µg/m3 0.36 µg/m3 65.69 µg/m3 -0.78 µg/m3 2.63 µg/m3 °C % mbar m/s Deg -0.19 µg/m3

It is to be noted that the data is provisional and subject to quality assurance procedures. For validated data kindly refer your request to contact.air@era.org.mt